User: anonymous   Login
Location: Claremont
(33.9858°S, 18.4575°E)
Time: 18:35:33
(UTC+00:00)
Language:

Timation 1 Rocket - Orbit

View from above orbital plane
View from above orbital plane
View from above satellite
View from above satellite

Ground track
Ground track

The orbit data is extracted from the following two-line orbital elements,

1 02825U 67053B   21332.89715942 -.00000004  00000-0  35268-4 0  9997
2 02825  69.9734  38.3658 0007361 197.5443 162.5410 13.97191831860028
Epoch (UTC): 28 November 2021 21:31:54
Eccentricity: 0.0007361
inclination: 69.9734°
perigee height: 898 km
apogee height: 909 km
right ascension of ascending node: 38.3658°
argument of perigee: 197.5443°
revolutions per day: 13.97191831
mean anomaly at epoch: 162.5410°
orbit number at epoch: 86002

The dashed part of the orbit path shows where the satellite is in the earth's shadow,  

DLR